TimeAST,TemperatureF,Dew PointF,Humidity,Sea Level PressureIn,VisibilityMPH,Wind Direction,Wind SpeedMPH,Gust SpeedMPH,PrecipitationIn,Events,Conditions,WindDirDegrees,DateUTC
12:00 AM,50.0,48.2,94,30.04,3.0,NNE,20.7,28.8,N/A,,Overcast,20,2012-11-16 04:00:00
12:30 AM,50.0,48.2,94,30.03,3.0,North,19.6,25.3,N/A,,Overcast,10,2012-11-16 04:30:00
12:48 AM,50.0,48.2,94,30.03,3.5,NNE,20.7,-,N/A,,Overcast,20,2012-11-16 04:48:00
12:53 AM,50.0,48.2,94,30.03,3.5,North,19.6,-,N/A,,Overcast,10,2012-11-16 04:53:00
1:00 AM,48.2,46.4,93,30.04,3.5,NNE,19.6,-,N/A,,Overcast,20,2012-11-16 05:00:00
1:16 AM,48.2,46.4,93,30.03,3.5,NNE,21.9,-,N/A,,Overcast,20,2012-11-16 05:16:00
1:29 AM,50.0,48.2,94,30.03,4.0,North,17.3,23.0,N/A,,Overcast,10,2012-11-16 05:29:00
1:45 AM,50.0,48.2,94,30.04,3.5,North,18.4,-,N/A,,Overcast,10,2012-11-16 05:45:00
2:00 AM,49,47,91,30.06,3,North,19.6,,,,Unknown Precipitation,10,2012-11-16 06:00:00
2:00 AM,48.2,46.4,93,30.06,3.5,North,19.6,-,N/A,,Overcast,10,2012-11-16 06:00:00
2:13 AM,48.2,46.4,93,30.05,2.4,North,19.6,-,N/A,,Overcast,360,2012-11-16 06:13:00
2:31 AM,50.0,48.2,94,30.05,2.2,NNE,19.6,-,N/A,,Overcast,20,2012-11-16 06:31:00
2:39 AM,48.2,48.2,100,30.05,1.4,North,18.4,25.3,N/A,,Overcast,360,2012-11-16 06:39:00
2:47 AM,48.2,48.2,100,30.05,1.2,North,20.7,-,N/A,,Overcast,360,2012-11-16 06:47:00
2:58 AM,48.2,48.2,100,30.05,1.6,North,19.6,27.6,N/A,,Overcast,360,2012-11-16 06:58:00
3:00 AM,50.0,48.2,94,30.05,1.5,North,19.6,27.6,N/A,,Overcast,10,2012-11-16 07:00:00
3:28 AM,48.2,46.4,93,30.03,2.5,North,21.9,28.8,N/A,,Overcast,360,2012-11-16 07:28:00
3:42 AM,48.2,46.4,93,30.03,5.0,North,21.9,28.8,N/A,,Overcast,10,2012-11-16 07:42:00
4:00 AM,48.2,46.4,93,30.04,6.0,North,24.2,-,N/A,,Overcast,10,2012-11-16 08:00:00
4:30 AM,48.2,46.4,93,30.04,6.0,North,21.9,27.6,N/A,,Overcast,10,2012-11-16 08:30:00
4:45 AM,48.2,46.4,93,30.04,6.0,North,20.7,28.8,N/A,,Overcast,360,2012-11-16 08:45:00
5:00 AM,48,46,89,30.05,6,North,20.7,,,,Overcast,10,2012-11-16 09:00:00
5:00 AM,48.2,46.4,93,30.05,6.0,North,21.9,-,N/A,,Overcast,10,2012-11-16 09:00:00
6:00 AM,48.2,46.4,93,30.06,6.0,North,18.4,24.2,N/A,,Overcast,360,2012-11-16 10:00:00
7:00 AM,48.2,44.6,87,30.07,8.0,NNE,20.7,-,N/A,,Overcast,20,2012-11-16 11:00:00
7:30 AM,48.2,46.4,93,30.07,6.0,NNE,18.4,24.2,N/A,,Overcast,20,2012-11-16 11:30:00
7:45 AM,48.2,46.4,93,30.08,6.0,North,17.3,23.0,N/A,,Overcast,10,2012-11-16 11:45:00
8:00 AM,48,46,89,30.09,3,NNE,16.1,,,,Unknown Precipitation,20,2012-11-16 12:00:00
8:00 AM,48.2,46.4,93,30.09,3.5,NNE,17.3,-,N/A,,Overcast,20,2012-11-16 12:00:00
8:30 AM,48.2,46.4,93,30.10,4.0,NNE,13.8,-,N/A,,Overcast,20,2012-11-16 12:30:00
8:44 AM,48.2,46.4,93,30.10,3.0,North,15.0,-,N/A,,Overcast,10,2012-11-16 12:44:00
9:00 AM,48.2,46.4,93,30.10,6.0,North,15.0,-,N/A,,Overcast,10,2012-11-16 13:00:00
10:00 AM,48.2,46.4,93,30.11,9.0,North,15.0,-,N/A,,Overcast,10,2012-11-16 14:00:00
10:23 AM,48.2,46.4,93,30.11,9.0,North,13.8,19.6,N/A,,Overcast,360,2012-11-16 14:23:00
10:41 AM,48.2,46.4,93,30.12,7.0,North,10.4,-,N/A,,Overcast,10,2012-11-16 14:41:00
11:00 AM,49,46,85,30.12,7,North,11.5,,,,Overcast,0,2012-11-16 15:00:00
11:00 AM,48.2,46.4,93,30.12,8.0,North,12.7,-,N/A,,Overcast,360,2012-11-16 15:00:00
11:19 AM,48.2,46.4,93,30.11,9.0,North,11.5,-,N/A,,Overcast,10,2012-11-16 15:19:00
11:44 AM,48.2,46.4,93,30.10,9.0,North,13.8,-,N/A,,Overcast,10,2012-11-16 15:44:00
12:00 PM,48.2,46.4,93,30.10,8.0,North,11.5,17.3,N/A,,Overcast,360,2012-11-16 16:00:00
1:00 PM,50.0,46.4,87,30.10,9.0,North,11.5,17.3,N/A,,Overcast,10,2012-11-16 17:00:00
1:55 PM,50.0,46.4,87,30.09,9.0,NNE,9.2,-,N/A,,Overcast,30,2012-11-16 17:55:00
1:56 PM,50.0,46.4,87,30.09,9.0,NNE,11.5,-,N/A,,Overcast,20,2012-11-16 17:56:00
2:00 PM,50,46,81,30.10,9,NNE,10.4,,,,Overcast,20,2012-11-16 18:00:00
2:00 PM,50.0,46.4,87,30.10,9.0,North,11.5,-,N/A,,Overcast,10,2012-11-16 18:00:00
2:26 PM,50.0,46.4,87,30.10,9.0,North,9.2,-,N/A,,Overcast,350,2012-11-16 18:26:00
2:38 PM,50.0,46.4,87,30.10,9.0,North,12.7,-,N/A,,Overcast,360,2012-11-16 18:38:00
3:00 PM,50.0,46.4,87,30.11,9.0,North,11.5,-,N/A,,Overcast,10,2012-11-16 19:00:00
3:27 PM,48.2,46.4,93,30.12,2.2,North,11.5,-,N/A,,Unknown,10,2012-11-16 19:27:00
3:44 PM,48.2,46.4,93,30.12,4.0,North,11.5,-,N/A,,Overcast,10,2012-11-16 19:44:00
4:00 PM,48.2,46.4,93,30.13,7.0,North,10.4,-,N/A,,Overcast,10,2012-11-16 20:00:00
5:00 PM,48,46,88,30.15,7,North,9.2,,,,Overcast,0,2012-11-16 21:00:00
5:00 PM,48.2,46.4,93,30.15,8.0,North,9.2,-,N/A,,Overcast,10,2012-11-16 21:00:00
6:00 PM,48.2,46.4,93,30.16,3.5,North,6.9,-,N/A,,Overcast,360,2012-11-16 22:00:00
6:40 PM,48.2,46.4,93,30.15,3.5,North,4.6,-,N/A,,Overcast,360,2012-11-16 22:40:00
6:43 PM,48.2,46.4,93,30.15,3.5,North,6.9,-,N/A,,Overcast,10,2012-11-16 22:43:00
7:00 PM,48.2,46.4,93,30.15,4.0,North,6.9,-,N/A,,Overcast,360,2012-11-16 23:00:00
7:12 PM,48.2,46.4,93,30.15,9.0,North,6.9,-,N/A,,Overcast,10,2012-11-16 23:12:00
7:28 PM,48.2,44.6,87,30.15,9.0,NNW,6.9,-,N/A,,Overcast,340,2012-11-16 23:28:00
7:42 PM,48.2,46.4,93,30.15,6.0,North,10.4,-,N/A,,Overcast,350,2012-11-16 23:42:00
7:47 PM,48.2,46.4,93,30.15,3.5,North,10.4,-,N/A,,Overcast,350,2012-11-16 23:47:00
8:00 PM,48,45,87,30.16,9,North,6.9,,,,Overcast,0,2012-11-17 00:00:00
8:00 PM,48.2,44.6,87,30.16,9.0,North,6.9,-,N/A,,Overcast,10,2012-11-17 00:00:00
8:03 PM,48.2,46.4,93,30.16,9.0,North,5.8,-,N/A,,Mostly Cloudy,360,2012-11-17 00:03:00
8:10 PM,48.2,46.4,93,30.16,9.0,NW,8.1,-,N/A,,Overcast,320,2012-11-17 00:10:00
8:12 PM,48.2,46.4,93,30.16,6.0,NW,8.1,-,N/A,,Overcast,310,2012-11-17 00:12:00
8:18 PM,48.2,46.4,93,30.16,2.5,NNW,5.8,-,N/A,,Overcast,330,2012-11-17 00:18:00
8:19 PM,48.2,46.4,93,30.16,2.2,NNW,5.8,-,N/A,,Overcast,340,2012-11-17 00:19:00
8:33 PM,48.2,46.4,93,30.16,9.0,North,6.9,-,N/A,,Overcast,360,2012-11-17 00:33:00
8:37 PM,48.2,46.4,93,30.16,9.0,North,5.8,-,N/A,,Overcast,360,2012-11-17 00:37:00
8:45 PM,48.2,46.4,93,30.17,9.0,North,4.6,-,N/A,,Overcast,360,2012-11-17 00:45:00
8:53 PM,48.2,44.6,87,30.16,9.0,North,5.8,-,N/A,,Overcast,360,2012-11-17 00:53:00
9:00 PM,48.2,44.6,87,30.17,9.0,NNW,8.1,-,N/A,,Overcast,340,2012-11-17 01:00:00
9:07 PM,48.2,46.4,93,30.17,8.0,NNW,11.5,-,N/A,,Overcast,340,2012-11-17 01:07:00
9:32 PM,48.2,44.6,87,30.18,2.5,NNW,13.8,-,N/A,,Overcast,330,2012-11-17 01:32:00
9:57 PM,48.2,44.6,87,30.18,4.0,NNW,12.7,-,N/A,,Overcast,330,2012-11-17 01:57:00
10:52 PM,46.4,42.8,87,30.18,9.0,NNW,15.0,-,N/A,,Overcast,330,2012-11-17 02:52:00
11:00 PM,47,42,79,30.19,9,NNW,15.0,,,,Overcast,330,2012-11-17 03:00:00
11:00 PM,46.4,42.8,87,30.19,9.0,NNW,15.0,-,N/A,,Overcast,340,2012-11-17 03:00:00